EN

Hourly Weather Brzyczno

Today, 16 April, Friday

Time Temperature Precipitation Wind Pressure Humidity
00:00 +1°C° 0 mm 5 mps 762 mmHg 83%
01:00 +1°C° 0 mm 5 mps 762 mmHg 82%
02:00 +1°C° 0 mm 5 mps 762 mmHg 84%
03:00 +1°C° 0 mm 4 mps 762 mmHg 86%
04:00 0°C° 0 mm 4 mps 762 mmHg 88%
05:00 +1°C° 0 mm 4 mps 762 mmHg 87%
06:00 +1°C° 0 mm 4 mps 762 mmHg 85%
07:00 +3°C° 0 mm 4 mps 762 mmHg 84%
08:00 +3°C° 0 mm 5 mps 762 mmHg 76%
09:00 +5°C° 0 mm 5 mps 762 mmHg 69%
10:00 +7°C° 0 mm 5 mps 762 mmHg 61%
11:00 +7°C° 0 mm 5 mps 761 mmHg 58%
12:00 +8°C° 0 mm 6 mps 761 mmHg 56%
13:00 +9°C° 0 mm 6 mps 761 mmHg 53%
14:00 +8°C° 0 mm 6 mps 761 mmHg 59%
15:00 +7°C° 0 mm 6 mps 761 mmHg 66%
16:00 +5°C° 0 mm 6 mps 761 mmHg 72%
17:00 +5°C° 0 mm 5 mps 761 mmHg 77%
18:00 +3°C° 0 mm 5 mps 761 mmHg 82%
19:00 +2°C° 0 mm 5 mps 761 mmHg 87%
20:00 +3°C° 0.1 mm 4 mps 761 mmHg 88%
21:00 +3°C° 0.1 mm 4 mps 761 mmHg 89%
22:00 +3°C° 0.1 mm 4 mps 761 mmHg 90%
23:00 +3°C° 0.3 mm 4 mps 761 mmHg 92%

Tomorrow, 17 April, Saturday

Time Temperature Precipitation Wind Pressure Humidity
00:00 +3°C° 0.3 mm 4 mps 760 mmHg 94%
01:00 +3°C° 0.3 mm 3 mps 760 mmHg 95%
02:00 +3°C° 0 mm 3 mps 760 mmHg 96%
03:00 +3°C° 0 mm 3 mps 760 mmHg 96%
04:00 +4°C° 0 mm 2 mps 760 mmHg 96%
05:00 +5°C° 0 mm 2 mps 760 mmHg 95%
06:00 +5°C° 0 mm 2 mps 760 mmHg 94%
07:00 +6°C° 0 mm 2 mps 761 mmHg 93%
08:00 +6°C° 0 mm 2 mps 761 mmHg 90%
09:00 +7°C° 0 mm 2 mps 761 mmHg 88%
10:00 +8°C° 0 mm 2 mps 761 mmHg 85%
11:00 +9°C° 0 mm 3 mps 761 mmHg 83%
12:00 +10°C° 0 mm 3 mps 760 mmHg 80%
13:00 +11°C° 0 mm 4 mps 760 mmHg 77%
14:00 +11°C° 0.1 mm 4 mps 760 mmHg 78%
15:00 +11°C° 0.1 mm 4 mps 760 mmHg 78%
16:00 +11°C° 0.1 mm 4 mps 760 mmHg 79%
17:00 +10°C° 0.1 mm 4 mps 760 mmHg 84%
18:00 +9°C° 0.1 mm 3 mps 760 mmHg 89%
19:00 +8°C° 0.1 mm 3 mps 760 mmHg 94%
20:00 +7°C° 0 mm 3 mps 760 mmHg 94%
21:00 +7°C° 0 mm 2 mps 760 mmHg 95%
22:00 +6°C° 0 mm 2 mps 761 mmHg 95%
23:00 +7°C° 0 mm 2 mps 760 mmHg 94%

Day after tomorrow, 18 April, Sunday

Time Temperature Precipitation Wind Pressure Humidity
00:00 +7°C° 0 mm 2 mps 760 mmHg 94%
01:00 +7°C° 0 mm 2 mps 760 mmHg 93%
02:00 +7°C° 0 mm 2 mps 760 mmHg 94%
03:00 +7°C° 0 mm 2 mps 760 mmHg 95%
04:00 +7°C° 0 mm 2 mps 760 mmHg 95%
05:00 +7°C° 0 mm 3 mps 760 mmHg 93%
06:00 +8°C° 0 mm 3 mps 760 mmHg 91%
07:00 +8°C° 0 mm 3 mps 761 mmHg 89%
08:00 +10°C° 0 mm 3 mps 761 mmHg 82%
09:00 +11°C° 0 mm 3 mps 761 mmHg 76%
10:00 +13°C° 0 mm 4 mps 761 mmHg 69%
11:00 +13°C° 0.2 mm 4 mps 761 mmHg 66%
12:00 +14°C° 0.2 mm 4 mps 760 mmHg 62%
13:00 +15°C° 0.2 mm 4 mps 760 mmHg 59%
14:00 +14°C° 0.2 mm 4 mps 760 mmHg 61%
15:00 +14°C° 0.2 mm 4 mps 760 mmHg 64%
16:00 +14°C° 0.2 mm 4 mps 760 mmHg 66%
17:00 +13°C° 0.1 mm 3 mps 760 mmHg 71%
18:00 +12°C° 0.1 mm 3 mps 760 mmHg 77%
19:00 +10°C° 0.1 mm 3 mps 760 mmHg 82%
20:00 +10°C° 0 mm 3 mps 760 mmHg 84%
21:00 +9°C° 0 mm 3 mps 761 mmHg 87%
22:00 +8°C° 0 mm 3 mps 761 mmHg 89%
23:00 +8°C° 0 mm 3 mps 761 mmHg 90%

19 April, Monday

Time Temperature Precipitation Wind Pressure Humidity
00:00 +7°C° 0 mm 3 mps 760 mmHg 91%
01:00 +7°C° 0 mm 2 mps 760 mmHg 91%
02:00 +6°C° 0 mm 2 mps 760 mmHg 91%
03:00 +6°C° 0 mm 2 mps 760 mmHg 91%
04:00 +6°C° 0 mm 2 mps 760 mmHg 91%
05:00 +7°C° 0 mm 3 mps 760 mmHg 86%
06:00 +7°C° 0 mm 3 mps 760 mmHg 81%
07:00 +8°C° 0 mm 3 mps 760 mmHg 77%
08:00 +10°C° 0 mm 3 mps 760 mmHg 71%
09:00 +12°C° 0 mm 3 mps 760 mmHg 65%
10:00 +14°C° 0 mm 3 mps 759 mmHg 59%
11:00 +16°C° 0.1 mm 3 mps 759 mmHg 55%
12:00 +17°C° 0.1 mm 3 mps 759 mmHg 50%
13:00 +17°C° 0.1 mm 3 mps 758 mmHg 45%
14:00 +17°C° 0.1 mm 3 mps 758 mmHg 49%
15:00 +17°C° 0.1 mm 3 mps 758 mmHg 52%
16:00 +15°C° 0.1 mm 4 mps 757 mmHg 55%
17:00 +13°C° 0.1 mm 3 mps 757 mmHg 62%
18:00 +11°C° 0.1 mm 3 mps 757 mmHg 68%
19:00 +10°C° 0.1 mm 3 mps 757 mmHg 75%
20:00 +9°C° 0 mm 3 mps 757 mmHg 78%
21:00 +8°C° 0 mm 3 mps 757 mmHg 82%
22:00 +7°C° 0 mm 2 mps 757 mmHg 86%
23:00 +7°C° 0 mm 2 mps 757 mmHg 86%

20 April, Tuesday

Time Temperature Precipitation Wind Pressure Humidity
00:00 +8°C° 0 mm 2 mps 757 mmHg 85%
01:00 +9°C° 0 mm 1 mps 757 mmHg 85%
02:00 +9°C° 0 mm 1 mps 756 mmHg 84%
03:00 +9°C° 0 mm 1 mps 756 mmHg 84%
04:00 +9°C° 0 mm 1 mps 756 mmHg 83%
05:00 +8°C° 0 mm 2 mps 756 mmHg 81%
06:00 +8°C° 0 mm 2 mps 756 mmHg 78%
07:00 +8°C° 0 mm 3 mps 756 mmHg 76%
08:00 +10°C° 0 mm 3 mps 756 mmHg 68%
09:00 +11°C° 0 mm 3 mps 755 mmHg 61%
10:00 +12°C° 0 mm 3 mps 755 mmHg 53%
11:00 +13°C° 0 mm 3 mps 755 mmHg 52%
12:00 +13°C° 0 mm 3 mps 754 mmHg 51%
13:00 +13°C° 0 mm 3 mps 754 mmHg 49%
14:00 +13°C° 0 mm 3 mps 754 mmHg 52%
15:00 +13°C° 0 mm 4 mps 754 mmHg 55%
16:00 +12°C° 0 mm 4 mps 754 mmHg 58%
17:00 +11°C° 0 mm 4 mps 754 mmHg 64%
18:00 +8°C° 0 mm 4 mps 754 mmHg 69%
19:00 +7°C° 0 mm 4 mps 754 mmHg 75%
20:00 +7°C° 0 mm 3 mps 754 mmHg 80%
21:00 +5°C° 0 mm 3 mps 754 mmHg 86%
22:00 +3°C° 0 mm 3 mps 754 mmHg 91%
23:00 +3°C° 0 mm 3 mps 754 mmHg 92%

21 April, Wednesday

Time Temperature Precipitation Wind Pressure Humidity
00:00 +4°C° 0 mm 2 mps 754 mmHg 93%
01:00 +3°C° 0 mm 2 mps 753 mmHg 94%
02:00 +3°C° 0 mm 2 mps 753 mmHg 93%
03:00 +3°C° 0 mm 2 mps 753 mmHg 93%
04:00 +3°C° 0 mm 2 mps 753 mmHg 92%
05:00 +4°C° 0 mm 2 mps 753 mmHg 87%
06:00 +5°C° 0 mm 3 mps 753 mmHg 82%
07:00 +7°C° 0 mm 3 mps 753 mmHg 77%
08:00 +7°C° 0 mm 4 mps 753 mmHg 71%
09:00 +9°C° 0 mm 5 mps 753 mmHg 64%
10:00 +10°C° 0 mm 5 mps 753 mmHg 57%
11:00 +12°C° 0.1 mm 5 mps 753 mmHg 55%
12:00 +12°C° 0.1 mm 5 mps 753 mmHg 53%
13:00 +13°C° 0.1 mm 4 mps 753 mmHg 51%
14:00 +13°C° 0 mm 4 mps 753 mmHg 52%
15:00 +13°C° 0 mm 4 mps 752 mmHg 52%
16:00 +13°C° 0 mm 4 mps 752 mmHg 53%
17:00 +11°C° 0.1 mm 3 mps 753 mmHg 61%
18:00 +10°C° 0.1 mm 3 mps 753 mmHg 69%
19:00 +9°C° 0.1 mm 2 mps 753 mmHg 77%
20:00 +8°C° 0 mm 3 mps 753 mmHg 77%
21:00 +8°C° 0 mm 3 mps 753 mmHg 77%
22:00 +7°C° 0 mm 4 mps 753 mmHg 76%
23:00 +5°C° 0 mm 4 mps 754 mmHg 75%
Show more

We Need Your Consent

Meteoprog and our Service Providers may store and access personal data such as cookies, device identifiers or other similar technologies on your device and process such data to personalise content and ads, as well as provide social media features and to analyse the traffic.

  • Store and/or access information on your device

    Cookies, device identifiers or other information can be stored or accessed on your device for the purposes indicated above.

  • Personalised ads and content, ad and content measurement, audience insights, and products development

    Ads and content can be personalised based on a profile. More data can be added to better personalise ads and content. Ad and content performance can be measured. Insights about the audience who saw the ads and content can be derived. Such data can be used to develop or improve user’s experience, systems and software.

By clicking ‘I Agree’ you will allow the use of indicated cookies, device identifiers, web beacons or other similar technologies. Your settings can be changed in the browser on your device.

For certain purposes, legitimate interests may be relied on, rather than consent. You can read more about this in our Privacy and Cookie Policy.